Location: Franzen
(48.6167°N, 15.3833°E)
Time: 06:18:55
(UTC+00:00)

Altair - Pass Details

Date: 11 August 2021
Orbit: 1501 x 1682 km, 47.2° (Epoch: 21 September)

Event Time Altitude Azimuth Distance (km) Brightness Sun altitude
Rises 01:54:02 0° 278° (W) 4,744 9.7 -15.8°
Reaches altitude 10° 01:57:09 10° 277° (W) 3,737 9.2 -15.5°
Maximum altitude 02:06:31 77° 194° (SSW) 1,555 7.4 -14.4°
Drops below altitude 10° 02:15:40 10° 110° (ESE) 3,651 9.8 -13.3°
Sets 02:18:40 0° 109° (ESE) 4,630 10.4 -12.9°
